Theta_e
352 353 353 356 356 357 357 359 360 361 361 342 337 344 347 353 353 355 354 351 350 346 346 347 346 345 348 348 348 349 349 351 351 348 348 352 352 351 351 352 353 354 354 353 352 352 350 346 345 347 351 353 352 352 353 353 353 352 352 351 352 352 353 353 353 353 353 353 353 353 353 353 353 353 352 352 353 354 353 352 353 353 352 352 352 350 351 352 351 352 352 352 353 352 351 350 351
353 355 355 357 355 359 359 360 358 352 350 340 340 347 348 355 353 353 353 351 349 345 345 346 346 347 348 346 346 349 350 349 349 350 350 351 351 351 351 352 353 353 354 352 351 352 351 347 345 346 351 354 353 353 353 354 354 353 351 351 352 351 352 352 352 353 354 354 353 353 352 352 352 351 351 352 353 353 353 352 353 352 351 351 350 350 351 352 352 352 352 352 352 351 352 351 352
355 357 357 356 355 359 359 361 354 341 345 342 341 350 352 355 353 352 351 348 346 344 347 346 346 347 348 349 348 350 350 348 346 348 350 350 351 352 351 352 352 352 353 352 352 352 349 347 344 345 350 353 353 352 352 353 354 353 352 352 351 352 353 352 352 353 354 353 353 353 353 351 351 352 351 351 352 354 352 352 353 353 352 351 350 350 350 351 351 352 351 351 351 350 349 350 351
356 359 358 356 358 360 362 363 357 346 344 337 336 351 355 354 352 351 348 347 347 345 347 347 348 346 347 350 349 349 348 347 347 348 350 350 349 350 350 351 352 352 353 352 352 351 348 346 345 347 349 351 353 351 350 352 352 352 353 353 352 353 353 352 352 353 354 354 353 353 353 352 351 351 351 350 351 353 352 352 352 353 352 351 350 349 350 351 350 351 350 349 350 349 349 350 351
358 359 358 357 361 362 365 362 357 350 344 336 338 351 352 351 350 348 346 346 346 345 346 348 349 346 346 349 347 347 346 345 347 349 350 349 348 348 349 351 350 351 352 351 351 351 347 346 347 349 349 350 353 352 351 351 351 353 354 353 352 353 353 353 353 353 354 353 352 352 352 352 351 350 350 350 349 350 352 352 352 352 352 352 351 350 351 351 350 352 351 350 351 349 349 349 350
358 359 357 358 362 361 363 355 346 343 346 348 345 349 351 349 348 347 345 345 345 345 345 348 348 347 347 346 346 346 346 345 346 349 349 349 350 350 350 351 351 352 353 351 351 350 348 348 349 350 350 351 353 352 351 350 351 353 353 352 351 352 353 353 353 353 353 352 351 351 351 351 351 350 349 349 349 350 351 351 351 351 352 352 351 349 350 350 351 352 351 351 350 349 349 349 349
358 360 360 360 361 361 362 350 340 342 349 354 348 349 351 347 349 347 345 345 346 345 345 346 344 347 349 347 347 346 347 346 345 348 349 350 351 351 351 352 352 353 353 352 352 351 350 351 351 351 352 351 351 351 350 349 351 353 352 352 351 353 354 352 353 352 352 352 350 349 351 352 351 350 347 347 350 350 350 351 352 352 352 351 350 349 349 350 351 352 352 351 350 350 351 350 349
356 360 361 363 365 361 359 351 345 350 351 352 351 351 351 349 350 348 347 346 347 346 345 345 344 349 350 350 350 348 348 346 345 349 349 350 351 351 352 353 353 352 352 353 353 351 351 352 352 352 352 352 352 350 349 350 352 353 353 352 352 353 353 352 352 353 353 352 351 350 351 352 352 351 347 345 349 352 351 352 352 352 352 351 350 349 348 349 352 352 351 350 351 351 351 350 347
355 358 361 364 366 357 353 351 348 353 352 352 352 351 351 351 349 348 348 348 348 345 345 346 346 351 351 350 351 348 347 347 346 348 348 350 351 351 351 352 353 353 353 354 353 350 351 352 352 351 352 353 352 350 351 352 353 353 353 353 353 353 353 352 352 353 353 353 352 352 351 352 352 351 347 340 343 350 353 353 353 353 353 352 351 350 349 351 352 351 349 348 348 347 349 348 345
359 359 363 366 362 351 345 345 346 351 353 351 351 352 350 349 348 348 350 350 348 345 346 346 346 350 349 350 350 346 346 347 346 346 348 350 349 349 350 351 352 353 353 354 354 352 351 351 351 352 353 353 351 351 352 352 352 353 353 353 352 353 353 352 352 353 353 353 352 352 352 352 352 351 346 335 331 341 350 354 354 353 353 352 352 351 351 351 350 349 348 347 344 341 343 344 343
366 361 364 366 354 348 346 343 346 352 352 352 352 352 348 347 348 347 348 349 346 346 345 346 349 348 348 348 347 346 346 346 346 346 348 349 348 349 349 350 351 352 353 354 354 354 352 352 352 352 352 351 350 351 352 352 352 352 352 352 351 352 353 353 353 352 353 353 352 353 352 352 352 351 348 338 329 330 343 353 353 353 353 352 351 348 346 345 345 346 346 345 343 340 339 341 341
365 363 365 362 352 353 354 345 349 355 353 353 353 353 349 346 347 346 345 345 345 347 345 348 351 347 348 347 345 345 345 346 346 346 348 348 348 348 348 349 351 352 353 353 354 354 353 352 352 352 351 350 350 351 352 352 352 352 352 352 352 352 353 353 353 353 353 353 353 353 352 352 352 351 348 341 333 326 334 350 353 353 353 352 352 349 346 343 341 340 341 341 340 339 339 339 340
360 365 366 361 358 363 361 351 352 356 353 354 353 352 352 349 348 347 345 343 345 347 345 346 347 345 347 346 345 345 345 346 345 346 348 348 348 348 348 348 350 352 353 352 353 354 353 353 353 352 350 350 350 351 352 352 351 351 351 352 352 352 352 353 352 352 352 352 353 353 351 351 349 347 342 334 331 326 328 343 351 353 354 353 352 351 349 344 340 338 339 338 337 337 337 337 337
360 368 367 363 363 364 363 357 353 349 349 354 355 354 353 350 349 346 344 344 344 346 346 344 344 345 346 346 346 345 345 346 344 346 347 348 348 349 348 349 350 351 351 352 353 353 355 354 354 352 352 351 351 352 352 351 351 350 351 352 352 351 351 351 352 352 352 353 352 350 348 346 344 341 334 328 327 325 324 334 345 348 351 353 352 351 349 345 342 340 341 341 340 340 339 338 334
360 366 370 369 362 356 357 356 355 348 348 354 353 355 352 350 351 346 344 343 343 343 344 343 343 346 345 347 347 345 346 345 345 346 345 347 348 349 349 351 351 350 351 351 353 354 355 355 354 352 352 352 352 352 352 351 351 351 352 352 351 351 350 350 352 352 351 351 349 346 342 340 339 335 330 326 324 325 324 329 339 344 347 350 351 350 347 342 341 342 343 344 344 344 343 340 334
357 363 374 371 358 354 355 353 357 348 347 355 352 353 352 351 351 348 346 341 342 342 342 342 342 345 345 345 347 345 345 344 345 345 345 347 346 349 350 351 350 351 352 352 354 355 354 354 353 352 352 352 352 351 350 350 351 351 352 352 351 351 350 349 351 351 351 350 348 343 339 340 341 339 336 330 328 333 330 326 334 340 341 346 348 347 344 340 341 342 345 346 346 346 345 342 336
356 366 372 365 359 357 357 357 363 355 348 354 352 352 353 351 349 347 346 342 342 342 341 342 342 343 344 345 346 345 345 345 346 346 346 347 346 348 349 350 350 351 352 352 354 353 354 354 353 353 353 352 351 351 351 349 351 352 351 351 351 351 351 350 350 350 351 350 347 344 345 348 347 347 347 343 341 338 330 324 329 335 339 344 345 344 343 342 342 344 344 345 345 344 344 343 340
359 368 363 358 361 359 358 362 366 362 352 353 354 352 352 351 350 348 346 343 342 342 342 344 344 344 345 346 345 345 345 345 346 346 346 346 346 347 348 350 350 351 352 351 352 352 353 352 352 353 353 353 352 352 352 350 351 352 351 350 351 351 351 351 350 350 350 350 348 347 349 351 350 349 348 347 341 329 322 323 327 334 340 343 343 343 342 343 343 342 343 343 344 344 344 343 342
357 364 357 354 360 359 362 363 362 360 354 353 353 350 351 350 349 349 347 344 341 343 345 346 346 346 345 345 345 345 345 346 346 346 346 347 347 346 348 349 349 350 351 351 351 353 354 351 352 354 353 352 353 353 353 352 352 352 352 350 350 350 350 351 350 350 351 351 349 350 350 350 350 349 348 348 340 327 322 326 330 336 341 342 341 342 341 342 341 341 343 343 344 345 347 347 346
357 358 359 361 358 359 363 362 363 360 356 355 353 349 350 349 347 349 347 346 345 345 346 347 347 346 345 344 345 345 346 346 347 346 346 347 347 347 347 348 349 349 351 352 352 353 353 352 352 354 352 349 352 353 353 353 352 351 352 351 351 351 351 352 350 350 351 351 350 350 349 351 349 348 349 347 338 329 327 329 335 339 340 341 341 341 342 342 342 342 344 345 346 347 348 350 351
359 357 362 368 361 358 359 360 363 359 355 358 356 353 350 348 348 348 349 350 350 348 344 346 347 346 345 344 345 346 347 346 347 347 347 347 347 348 347 348 349 349 350 351 351 351 353 353 351 352 351 349 351 354 352 352 351 352 352 352 351 352 351 350 348 348 350 350 349 349 349 350 346 344 346 343 334 331 332 334 338 340 342 343 343 344 344 345 345 346 346 347 347 348 350 352 353
360 359 360 364 361 360 361 361 361 358 356 356 355 355 352 350 349 345 347 351 351 346 343 345 345 345 344 344 345 346 346 345 347 347 347 349 348 348 348 347 348 348 349 350 350 350 351 353 352 353 353 351 352 352 352 352 352 353 352 351 350 349 349 347 345 346 348 349 348 348 349 348 344 344 348 346 342 340 341 341 342 345 348 348 347 348 349 349 347 348 350 349 348 349 351 351 349
357 359 360 361 361 362 362 361 358 357 361 363 359 355 351 352 351 348 349 349 346 345 343 344 344 344 345 345 345 345 345 344 346 347 347 348 348 348 348 347 348 349 350 350 350 350 350 352 352 353 353 350 350 350 351 352 353 353 351 351 350 347 347 345 343 346 348 350 348 348 348 346 345 347 349 349 347 346 348 347 347 349 351 351 350 350 352 351 349 350 351 351 350 350 347 344 344
358 359 360 360 360 361 361 360 358 358 365 367 360 353 353 356 353 352 354 348 343 344 343 343 344 345 345 345 346 345 345 345 345 347 347 347 347 347 348 348 347 350 350 349 350 351 350 351 352 352 352 350 350 349 349 351 352 351 350 351 349 347 348 345 344 347 349 350 348 347 346 345 346 347 349 349 348 347 348 349 348 349 350 350 350 350 350 348 348 350 350 350 348 346 343 342 343
360 360 359 361 360 360 359 358 359 361 364 363 359 355 357 357 353 353 355 348 342 343 342 343 343 344 345 345 346 346 345 345 346 347 346 347 347 347 348 347 348 349 350 349 349 350 349 350 350 350 351 350 350 350 349 349 348 348 349 349 349 348 349 348 348 350 350 350 348 346 345 345 345 347 349 350 349 348 347 347 347 348 348 348 349 349 349 348 348 350 349 348 348 343 341 342 342
357 359 362 364 360 359 358 360 363 362 363 363 359 357 358 357 353 353 353 347 342 342 342 343 343 344 346 345 346 345 345 344 345 347 346 347 347 347 347 347 348 349 349 349 349 350 350 350 349 349 351 350 350 350 349 347 347 347 348 348 350 349 348 350 351 351 352 350 347 346 346 346 346 347 349 349 350 350 348 347 347 349 348 347 349 349 349 349 348 349 349 349 348 343 341 343 343
357 358 362 365 362 361 361 363 364 361 362 362 360 358 357 355 355 356 351 346 343 342 342 343 344 345 345 345 345 345 344 344 346 347 346 346 347 347 348 348 348 349 349 348 350 351 351 350 349 349 351 350 350 351 348 346 346 346 348 349 350 350 348 350 351 351 351 348 348 349 349 348 347 348 350 351 352 351 348 348 348 348 348 348 348 349 349 349 348 348 348 348 348 342 342 344 342
355 358 361 363 361 362 363 364 364 361 362 360 362 361 358 354 354 356 350 345 343 342 343 343 344 345 344 345 345 345 345 346 347 346 346 346 346 346 348 349 348 349 349 349 351 351 351 351 348 349 350 349 348 349 346 346 346 347 349 350 351 351 350 349 350 350 348 347 350 351 350 349 349 350 351 351 351 350 349 348 348 349 349 349 349 350 350 349 348 347 347 348 347 342 341 343 341
354 356 357 361 362 361 362 365 363 361 363 361 362 358 357 360 356 352 348 347 348 344 342 344 344 344 344 345 345 346 346 345 347 346 347 346 346 347 348 349 349 349 349 349 351 351 350 349 349 350 349 348 348 348 346 346 347 348 349 350 351 350 350 350 349 349 349 348 351 352 351 352 352 353 353 352 351 350 348 348 349 350 349 349 351 351 349 349 350 349 349 347 345 341 339 341 339
354 353 350 354 356 360 364 365 363 363 362 362 361 350 350 360 356 353 354 350 351 349 344 343 344 344 345 346 345 346 346 345 347 346 347 346 346 348 347 349 349 348 349 349 350 351 351 350 350 351 350 349 349 348 348 348 347 348 348 350 351 350 351 350 350 351 350 349 351 353 353 354 354 354 355 354 351 350 349 349 350 351 350 350 351 351 349 350 350 349 348 347 345 342 340 340 339
353 351 348 346 340 349 365 364 364 366 362 363 361 347 347 359 359 358 358 352 351 350 347 344 343 344 345 346 345 345 346 345 347 346 347 347 347 347 347 348 348 348 349 349 350 350 350 351 351 350 350 351 349 347 348 348 347 348 348 350 352 352 350 350 351 351 350 349 351 352 353 355 355 356 357 355 351 350 349 350 351 352 353 351 349 351 350 350 350 348 348 348 347 346 343 339 338
350 339 334 335 334 348 367 362 361 365 362 363 359 347 348 359 359 358 358 354 354 350 349 346 343 346 345 346 346 344 344 345 347 347 347 347 347 347 347 347 348 349 349 349 350 350 350 350 350 350 350 350 349 347 347 348 347 348 349 351 353 351 349 349 349 348 348 349 350 351 353 354 356 357 357 354 349 349 349 350 350 350 351 351 348 350 350 350 349 348 349 350 349 348 345 342 339
342 335 324 327 330 341 356 358 359 361 363 366 361 353 353 357 355 356 356 354 353 350 348 349 344 346 346 346 347 345 345 345 346 347 347 346 347 347 347 347 347 348 349 350 350 350 350 350 350 350 350 350 349 347 348 349 348 348 349 350 351 349 348 348 347 345 344 346 348 351 353 353 356 358 357 354 351 349 350 349 349 349 350 349 347 348 349 350 351 348 348 350 349 348 347 345 340
329 332 326 327 330 332 340 354 361 359 364 366 363 360 357 354 353 354 355 354 353 350 349 350 346 345 347 346 347 346 345 346 346 347 347 347 348 348 348 348 348 348 349 350 350 349 350 350 350 350 351 350 348 347 350 350 348 349 350 349 349 349 347 347 346 344 342 343 346 349 351 352 354 358 357 355 352 350 351 351 350 350 350 348 347 347 347 349 352 351 350 349 350 349 346 346 343
322 325 324 324 327 329 335 348 357 356 360 363 361 360 358 353 354 354 353 353 352 351 351 350 346 345 347 346 346 346 345 346 347 347 347 347 348 348 349 348 348 349 349 350 350 349 350 350 350 350 350 349 347 348 350 349 349 350 350 349 350 349 347 347 346 343 340 340 345 347 350 351 352 355 357 355 353 351 350 351 350 349 350 349 348 348 349 350 351 352 352 350 351 350 345 345 344
328 328 327 323 321 325 337 347 351 351 354 360 358 354 355 354 355 355 351 352 353 352 354 352 347 345 346 344 345 346 345 346 347 347 347 347 348 349 350 349 349 349 350 351 351 351 351 350 351 351 350 349 347 349 350 349 350 350 349 349 349 349 348 348 345 342 340 340 345 347 348 350 350 352 355 354 352 351 350 352 352 350 352 351 350 351 351 354 354 353 353 350 349 349 347 345 345
331 330 328 326 322 326 341 349 351 353 349 353 357 350 353 355 355 356 353 353 355 354 354 352 348 346 346 345 345 346 346 346 347 347 347 348 349 349 349 349 349 350 351 352 351 351 351 351 352 351 350 350 349 351 350 349 351 351 349 348 348 350 350 348 344 341 342 342 347 348 346 346 348 351 354 353 352 352 351 353 352 352 354 354 353 352 352 355 354 352 354 352 349 349 347 346 347
328 327 324 322 324 331 345 347 348 355 344 343 354 351 351 357 355 355 354 353 355 354 353 351 348 346 346 345 346 345 346 346 346 347 347 348 349 349 350 350 350 351 351 351 351 351 351 351 352 351 350 351 350 352 350 349 351 351 349 347 346 348 350 349 344 341 344 344 346 346 344 347 350 352 355 352 352 352 350 353 354 354 355 355 354 352 352 354 352 351 352 351 349 349 348 347 347
325 325 321 318 325 334 343 347 348 354 343 338 347 345 348 358 356 355 356 355 353 351 352 351 346 347 347 346 347 346 345 347 347 347 348 348 349 350 350 351 350 351 351 350 351 351 351 352 352 351 351 351 351 351 350 350 350 349 348 347 345 347 349 349 345 343 345 345 345 344 344 349 351 353 355 353 353 352 351 354 355 354 356 356 355 354 355 354 353 352 351 351 350 348 347 347 348
324 323 317 315 323 326 327 340 350 351 343 342 346 343 350 360 358 359 363 363 360 356 356 355 349 347 347 346 347 346 346 347 347 347 347 349 350 350 350 350 350 351 351 350 351 352 352 353 352 351 351 351 351 350 349 349 349 348 349 347 346 347 347 348 346 344 346 346 347 346 346 351 351 352 355 354 353 353 354 355 356 356 356 357 357 356 356 355 353 350 350 352 350 347 348 349 349
322 324 319 317 322 321 324 337 346 343 340 350 348 336 346 361 360 361 367 368 362 356 358 359 356 350 346 346 346 346 346 346 347 346 346 348 350 350 350 350 350 351 351 350 351 351 351 353 353 351 351 351 350 350 349 349 349 348 348 346 346 346 346 347 346 345 345 346 347 347 348 352 351 351 353 354 352 354 356 357 357 358 357 357 357 356 353 353 353 350 349 349 348 349 349 349 351
317 324 324 322 324 323 327 335 334 324 327 349 348 327 335 357 358 359 365 366 362 356 358 357 356 354 348 348 347 346 347 346 347 346 345 348 350 351 351 350 350 351 350 350 350 350 352 353 354 353 352 351 351 351 350 349 348 347 345 345 346 346 347 347 345 345 346 345 345 345 347 350 350 350 351 352 353 356 357 357 358 358 357 357 357 356 354 354 351 349 348 347 349 353 350 350 353
312 321 326 327 327 325 325 326 322 315 320 346 352 328 327 344 352 357 362 362 361 358 358 358 357 355 348 349 348 347 347 345 346 347 346 347 350 351 352 351 350 349 349 350 349 350 352 353 354 353 352 352 352 352 350 348 349 348 347 348 349 349 348 348 345 345 346 345 343 344 346 348 347 348 351 352 353 357 358 358 358 357 356 356 356 355 355 352 349 349 351 351 352 356 354 354 355
314 325 329 327 328 326 326 326 321 320 326 337 344 334 325 333 348 357 359 359 362 361 359 363 360 354 350 349 346 346 346 346 346 346 347 348 349 351 352 351 349 348 348 348 349 350 352 353 354 353 353 352 352 351 351 350 350 351 350 350 351 350 348 348 346 344 345 345 343 344 345 346 346 346 350 351 353 356 357 357 358 356 355 355 356 356 353 350 349 351 354 354 355 356 354 354 356
320 328 328 327 329 330 329 326 321 325 328 323 329 333 324 328 347 359 359 358 360 361 360 364 363 356 353 352 347 347 346 347 347 346 347 348 350 351 350 350 349 347 347 347 348 350 352 353 354 354 354 353 352 352 353 353 352 352 351 350 351 349 346 347 346 343 343 343 345 346 345 346 347 346 348 352 354 355 356 356 357 356 355 354 356 355 352 350 351 353 355 355 355 355 353 354 356
324 325 327 326 327 328 329 328 323 324 326 321 324 327 322 326 340 349 353 354 357 361 358 361 362 356 355 353 351 350 348 347 347 347 348 348 350 351 350 350 349 347 347 346 347 351 353 354 353 355 355 354 353 353 354 354 354 353 352 350 349 349 346 344 345 344 343 343 346 347 346 346 347 346 349 353 354 355 355 355 355 356 355 354 355 354 352 354 355 355 356 354 354 357 358 357 357
324 324 325 325 327 332 332 332 326 322 324 324 324 326 323 324 332 340 347 352 355 359 358 357 357 356 357 355 351 350 349 347 346 346 347 348 349 350 351 351 349 348 346 345 347 350 353 353 354 355 355 355 355 354 356 356 354 354 352 349 348 347 346 344 344 347 348 347 348 348 348 349 349 348 348 351 353 354 354 354 354 354 354 353 354 355 355 355 354 354 354 353 354 358 359 358 357
323 324 324 322 327 330 326 327 330 327 325 324 325 329 323 320 329 341 347 350 352 356 357 356 355 355 359 358 352 350 350 349 347 347 347 348 350 350 350 351 349 349 346 345 346 350 353 354 355 355 355 355 356 355 356 355 354 352 351 349 347 346 346 344 344 348 351 351 350 350 350 351 351 350 349 350 351 352 352 352 352 352 353 355 354 354 355 354 353 353 353 354 356 357 358 358 358
323 325 319 317 323 325 322 323 327 329 326 323 326 328 322 321 333 345 349 348 348 351 353 353 352 353 357 358 355 351 349 348 348 348 347 348 350 350 351 351 351 350 347 346 345 348 353 354 355 356 355 356 356 355 356 354 353 352 350 350 349 347 347 345 345 348 351 351 351 350 351 351 351 351 350 350 350 350 350 351 352 351 353 356 355 355 356 356 355 353 354 356 357 358 360 359 358
324 322 316 319 326 326 324 322 322 323 320 320 328 327 319 321 334 345 349 346 345 346 347 349 350 351 354 356 353 352 349 347 349 351 349 349 350 350 351 350 351 351 348 347 346 347 352 355 357 357 355 356 357 355 355 354 353 352 350 350 350 348 348 348 347 349 351 351 351 350 351 351 352 351 350 351 351 349 349 351 353 351 353 356 356 357 358 357 356 355 356 356 356 358 359 359 359
327 328 326 323 324 323 321 319 318 319 318 318 326 325 317 320 333 345 347 345 345 345 345 349 351 352 354 354 352 350 348 347 351 352 351 349 350 351 351 351 351 352 349 345 346 347 350 354 358 358 356 357 358 356 355 354 353 352 350 350 351 350 350 349 349 350 350 350 350 349 349 350 351 352 351 351 351 349 350 352 352 352 353 356 358 358 358 356 355 356 356 356 356 357 357 358 359
330 332 329 322 325 323 318 317 317 316 318 318 319 321 324 330 340 346 344 343 345 345 345 349 350 351 352 353 352 349 347 348 350 351 350 350 352 354 354 353 351 351 351 349 346 346 349 354 357 357 356 357 358 356 354 353 353 352 350 350 351 350 350 349 349 349 348 348 349 348 349 349 350 351 350 350 351 350 351 352 352 352 353 356 358 358 357 356 355 356 357 356 356 356 355 356 356
328 326 321 325 332 327 315 314 316 316 318 319 317 318 325 334 340 343 344 344 343 344 347 347 350 351 351 352 354 351 350 351 351 351 351 351 355 357 355 352 350 349 350 350 349 347 348 353 356 358 357 357 357 355 353 352 352 352 351 351 351 350 349 349 348 348 348 348 348 348 349 350 352 352 351 351 352 352 352 353 354 353 353 356 357 357 357 356 356 357 358 357 356 356 355 354 354
326 319 322 330 331 327 319 315 316 318 319 319 316 315 319 324 331 340 346 346 343 346 349 348 350 352 351 351 352 352 352 353 354 356 358 356 356 357 355 353 351 350 351 349 349 349 348 351 354 357 357 357 355 354 353 352 351 351 351 351 351 349 349 348 348 348 348 348 349 350 351 351 352 352 352 352 353 352 353 354 353 353 354 355 356 355 355 355 356 357 357 357 357 356 354 353 355
329 324 329 330 321 320 321 316 316 318 318 317 316 315 317 320 325 334 344 346 346 349 350 349 348 350 354 355 353 352 354 356 356 357 358 356 355 357 356 354 351 350 351 351 350 351 349 349 351 354 356 356 355 353 353 352 351 351 351 351 350 349 349 347 347 347 348 349 351 352 352 351 352 352 352 352 352 353 353 354 354 354 354 354 356 355 355 355 356 358 357 356 356 355 352 353 356
329 328 330 328 321 319 319 317 316 316 316 316 316 315 317 324 331 338 343 345 347 348 351 352 351 352 356 356 354 353 355 357 355 354 354 354 354 356 356 356 355 353 351 352 353 353 352 351 351 351 352 353 353 353 353 354 353 352 352 352 351 350 350 348 348 348 348 350 351 351 352 352 352 352 352 352 352 352 353 354 354 354 354 356 356 357 356 355 357 359 357 355 355 355 354 355 356
324 321 319 320 320 320 320 317 315 314 314 314 315 315 319 332 343 345 344 345 347 348 351 354 353 353 355 355 355 356 357 357 355 354 354 354 355 355 353 356 357 354 351 353 356 355 354 354 352 350 349 349 350 350 351 352 353 353 353 353 352 351 351 350 348 348 349 350 350 350 351 351 351 351 352 353 353 352 353 354 354 353 353 354 356 355 354 355 355 357 357 355 354 355 356 355 355
326 322 319 320 320 318 317 317 316 314 313 313 314 315 322 338 346 345 345 347 349 348 350 354 355 356 357 358 358 360 360 358 356 354 352 354 357 354 353 356 355 353 353 354 357 357 355 354 352 351 352 349 347 348 348 349 350 351 352 352 352 351 351 351 349 349 350 350 350 350 350 351 350 351 352 353 353 353 352 353 354 353 352 353 354 354 353 355 357 356 357 358 357 357 356 353 354
Wind_Speed
3 3 2 4 5 2 2 3 1 1 2 1 5 6 5 8 8 8 9 9 7 9 10 11 12 10 10 12 13 13 10 6 4 4 5 8 16 20 18 18 18 17 17 16 15 14 13 13 12 11 10 10 12 13 14 15 15 16 16 16 15 15 15 15 17 17 16 17 16 17 16 17 16 16 17 17 17 17 17 18 17 16 16 15 14 13 15 16 16 15 16 17 17 17 17 15 15
4 3 3 5 3 1 1 1 1 2 2 1 5 6 6 8 8 9 9 10 10 11 12 12 12 11 12 13 14 15 14 12 13 11 9 17 21 20 20 18 18 19 17 16 15 14 12 13 12 12 10 9 11 12 13 14 15 16 16 15 15 16 15 15 16 16 16 16 16 16 16 16 16 16 17 17 17 17 17 17 17 17 16 15 14 14 14 15 16 15 16 16 16 16 16 16 16
5 4 4 2 2 1 1 1 2 3 1 3 4 5 7 8 10 10 11 13 12 13 12 13 12 9 11 13 14 14 12 13 17 15 10 19 18 16 19 18 18 18 18 17 16 15 13 13 12 12 11 9 10 12 12 14 16 16 16 15 15 16 16 15 15 15 15 15 15 15 15 16 16 16 16 16 16 17 17 17 17 17 17 16 14 13 14 15 16 15 15 16 16 15 15 15 16
5 6 4 4 1 1 1 1 2 3 0 4 5 6 8 9 10 9 11 13 12 12 10 12 11 8 10 13 13 13 12 12 16 15 10 16 17 19 21 18 18 17 18 17 16 15 14 13 13 13 11 10 10 11 12 14 16 16 15 15 15 15 15 14 14 14 14 14 15 15 15 15 16 16 16 16 16 17 17 17 16 16 16 15 14 13 13 14 16 15 15 17 17 16 15 14 15
5 8 7 2 1 1 1 2 1 1 2 4 6 7 8 9 9 9 10 12 12 12 10 10 10 9 10 10 9 9 11 13 15 16 14 18 22 23 21 19 19 17 17 17 16 16 16 15 14 14 12 11 10 10 12 13 15 16 15 15 15 15 14 14 13 13 13 13 14 15 15 15 15 15 15 16 16 17 16 17 16 16 16 15 14 13 13 15 16 16 16 17 17 16 16 14 14
4 5 5 1 1 1 1 3 1 3 5 6 6 7 9 9 7 9 10 13 15 14 12 9 11 12 10 9 9 9 11 13 14 16 20 23 24 23 22 21 19 18 18 17 17 17 17 15 14 15 12 11 10 10 12 13 15 15 15 15 15 14 13 13 13 12 12 12 13 14 14 14 15 15 15 15 15 16 16 17 16 16 17 15 14 13 14 15 17 17 16 17 17 17 16 14 12
4 3 1 2 2 2 2 3 3 5 6 7 8 8 9 8 6 8 9 11 13 12 12 10 11 11 10 9 10 11 11 15 16 17 23 26 25 24 22 20 20 19 18 18 18 18 17 15 14 13 12 12 11 11 11 13 15 15 14 14 14 13 11 12 12 12 12 11 12 13 14 14 14 14 14 14 15 16 17 17 17 17 17 15 15 14 15 16 18 17 16 16 16 16 15 13 11
4 3 1 1 1 0 3 3 4 6 7 9 9 8 8 7 5 5 7 8 8 9 11 11 11 11 11 10 9 9 12 20 22 22 25 28 27 24 21 20 20 19 19 20 19 18 16 14 14 12 12 11 10 10 11 12 14 13 13 13 13 12 11 11 12 12 11 11 11 12 13 13 13 13 13 13 14 15 16 17 17 17 16 15 15 15 15 16 17 16 16 16 15 15 14 13 11
5 3 2 0 1 2 3 1 6 7 8 9 9 8 7 6 4 4 9 12 8 7 11 10 9 11 12 12 10 9 15 24 26 24 24 25 25 22 20 20 20 20 20 20 19 18 16 14 14 12 12 12 11 10 11 12 12 12 12 13 12 12 11 11 12 11 11 11 11 12 12 12 12 12 12 12 14 14 14 15 16 16 16 16 16 16 16 15 15 15 16 16 16 15 14 14 12
3 1 0 1 2 3 3 2 6 7 9 8 8 8 6 5 4 6 10 14 11 9 12 11 10 13 14 13 10 10 17 23 25 24 23 23 22 20 19 19 19 20 20 20 19 18 16 15 14 13 12 12 12 12 12 11 12 12 12 12 12 12 11 10 11 11 11 11 11 11 12 12 12 12 11 11 13 14 14 14 14 15 16 16 17 17 16 15 14 14 15 16 16 15 15 15 14
1 0 1 1 3 3 3 2 6 7 9 8 7 7 6 6 6 7 8 13 16 13 12 11 10 13 14 12 9 12 20 22 22 24 23 22 20 20 20 20 20 20 20 20 19 18 17 16 15 13 12 12 12 13 12 11 12 12 12 12 12 12 11 10 10 11 10 10 11 11 11 12 12 12 11 11 12 13 14 14 14 14 16 16 16 16 17 16 15 14 14 15 16 16 16 16 16
2 1 1 2 3 2 5 1 6 7 8 7 7 6 4 5 6 7 7 11 16 14 10 9 8 10 13 11 8 14 20 20 20 23 25 23 20 20 20 19 21 20 20 20 19 18 18 16 15 12 11 12 13 13 12 12 12 12 13 12 12 12 11 11 10 10 10 10 10 10 11 12 12 11 10 10 10 11 13 14 14 14 14 15 15 15 16 15 15 15 15 15 15 16 16 16 16
1 1 2 1 3 1 4 2 4 6 6 6 6 5 3 5 6 7 6 9 14 13 10 10 11 10 12 10 9 13 17 19 20 21 24 25 21 19 18 19 20 20 20 19 19 18 17 17 15 13 11 12 13 13 13 12 13 12 13 13 12 12 11 11 11 11 10 10 10 10 11 12 12 11 10 10 10 10 13 14 14 14 13 13 14 14 15 15 16 16 16 16 16 16 16 16 16
1 0 1 1 2 1 3 2 3 4 5 5 5 3 4 5 6 6 5 9 12 11 12 13 11 10 12 10 9 10 13 19 20 19 21 24 23 20 18 18 19 19 19 19 18 18 17 17 16 14 13 12 13 13 13 13 13 13 13 13 12 12 11 11 11 11 10 10 10 11 12 11 11 10 10 10 10 10 12 14 14 14 13 13 13 13 14 15 16 16 16 15 15 15 16 16 16
2 1 1 2 1 1 3 2 1 2 5 5 5 3 5 5 5 6 4 7 11 10 12 12 8 7 11 11 9 10 16 20 19 19 19 20 23 22 19 18 17 18 19 18 18 17 17 18 17 14 14 14 13 13 13 13 13 13 12 12 12 12 11 10 10 11 11 11 12 12 12 11 11 10 10 10 10 11 12 13 13 13 12 12 12 13 13 14 15 14 14 13 13 14 14 15 16
2 1 2 2 1 1 2 3 4 0 5 6 5 3 6 6 5 5 2 3 9 7 7 10 7 8 11 12 13 17 21 21 19 19 18 19 21 22 22 20 18 17 18 18 17 17 16 17 16 14 14 14 14 13 13 14 14 13 13 11 12 11 10 11 11 11 12 12 13 12 11 11 10 10 10 10 10 10 11 12 13 12 11 12 12 13 14 14 13 12 11 11 12 13 14 14 16
2 2 2 1 0 0 1 2 2 1 4 7 5 4 6 6 5 4 1 1 8 6 5 9 8 8 11 15 19 22 22 20 19 19 18 17 17 19 21 21 21 19 16 17 16 16 16 15 16 15 14 14 14 13 13 14 15 13 13 12 11 11 10 11 11 11 11 12 13 12 10 9 9 10 9 8 9 9 11 12 13 12 11 12 13 14 14 13 12 11 10 11 11 12 13 14 15
3 1 0 1 0 0 1 1 2 5 3 7 5 5 7 6 5 2 2 4 8 8 7 9 11 11 15 19 23 22 20 20 19 19 17 15 14 15 16 16 18 17 15 16 17 17 16 16 17 15 14 13 13 13 13 13 14 13 13 12 11 10 10 11 11 11 11 12 12 11 11 11 9 9 8 8 7 9 12 13 13 12 13 13 14 14 13 12 11 10 10 10 11 11 11 13 15
3 1 1 2 1 1 2 3 5 8 4 8 6 6 7 5 4 1 3 6 6 10 10 10 15 16 17 20 21 21 20 19 18 17 16 15 14 14 14 14 13 14 15 15 18 18 17 16 15 15 15 14 13 12 13 13 13 13 12 12 11 10 10 11 11 11 10 11 12 12 13 11 9 7 7 7 7 9 12 13 13 13 14 13 13 13 12 11 10 10 10 10 10 9 9 11 12
2 2 1 1 1 1 4 5 4 8 4 4 3 4 6 5 4 1 4 7 4 5 10 9 14 15 16 17 18 20 19 18 17 16 15 14 13 14 13 15 15 14 15 15 18 19 17 16 15 15 15 14 13 12 13 13 13 13 12 12 11 10 10 9 10 13 12 11 12 12 11 9 8 8 8 8 8 10 12 13 14 14 14 13 12 12 11 10 10 10 9 8 9 9 9 9 10
1 1 1 1 2 1 5 4 2 8 5 3 2 0 5 6 5 3 5 7 3 3 9 10 13 15 16 16 16 17 17 16 15 13 13 12 12 13 10 13 15 14 15 15 18 19 17 17 16 16 17 15 13 12 13 13 13 12 12 13 12 11 10 9 12 14 12 12 13 12 11 9 10 11 10 10 10 12 13 13 14 14 13 12 12 11 10 9 9 9 7 7 8 8 9 9 11
1 2 1 1 2 2 5 5 3 4 3 2 1 4 5 7 5 3 3 4 1 2 8 12 13 14 15 15 15 15 15 14 13 12 12 12 13 13 10 13 14 14 17 16 17 18 18 19 18 17 17 15 14 14 14 14 13 11 11 12 13 13 12 12 14 14 12 13 13 12 12 11 11 10 8 9 10 10 11 12 12 12 9 9 9 8 8 6 7 6 5 6 6 7 8 7 10
1 2 2 3 4 4 3 3 7 3 1 2 2 4 4 6 6 5 4 1 2 2 7 12 14 14 14 15 13 14 14 12 12 11 12 14 14 12 11 14 13 14 18 18 17 17 18 19 18 17 15 14 14 14 14 14 12 10 11 11 11 14 14 14 15 13 13 13 12 11 12 12 10 8 8 9 10 10 10 9 8 8 7 6 7 7 7 7 8 5 4 5 6 8 9 7 8
2 2 3 6 6 4 6 7 9 5 3 1 0 2 5 7 6 5 4 5 2 5 8 11 13 14 14 13 13 12 12 12 12 11 11 12 12 12 11 12 12 15 16 18 16 14 16 18 17 16 15 15 14 14 16 13 11 13 13 12 12 14 14 15 15 14 13 11 10 11 12 11 11 10 10 11 12 11 10 9 7 7 7 6 6 6 6 6 6 5 3 2 4 5 10 11 9
4 1 3 3 6 3 3 4 5 3 3 1 3 4 6 3 3 3 6 8 3 6 9 12 13 13 12 12 13 12 11 11 12 13 13 13 13 12 11 10 12 14 14 15 15 14 16 19 18 16 14 14 13 13 16 13 11 14 15 15 15 14 14 15 14 13 12 8 8 11 11 11 11 11 10 10 10 8 9 8 6 5 5 5 5 4 5 6 7 5 3 3 3 4 10 11 11
4 3 4 3 3 1 3 5 5 2 1 2 3 7 4 3 2 2 10 8 5 7 9 12 12 13 12 11 12 12 10 9 10 12 14 13 13 14 12 10 12 15 14 13 14 14 17 19 18 17 15 14 14 13 13 12 12 14 16 16 15 13 14 15 13 12 9 7 10 10 10 9 9 10 9 8 7 7 7 5 4 5 5 5 5 4 5 5 5 5 4 2 4 5 10 8 9
7 7 6 6 5 3 2 5 6 3 2 1 2 6 5 4 3 3 8 5 5 6 9 11 11 11 12 10 11 12 11 9 10 12 12 11 12 14 14 11 10 13 14 13 14 15 16 17 17 18 18 16 16 14 12 12 14 13 15 15 14 12 13 14 13 11 8 9 10 8 7 7 7 9 9 9 8 7 6 5 5 5 4 4 5 4 4 5 5 5 4 1 2 5 7 4 6
7 8 8 6 5 4 2 4 5 4 2 1 2 3 3 3 3 2 2 4 6 7 9 11 10 9 11 11 9 11 11 11 12 13 13 12 11 13 14 13 12 12 13 13 15 15 14 15 15 16 18 16 15 14 12 13 15 14 15 15 13 12 12 13 13 9 7 9 10 6 6 5 5 9 9 8 8 8 7 6 6 5 3 4 6 4 4 4 5 4 3 0 2 5 6 5 7
7 6 5 5 6 3 4 4 3 3 3 4 3 2 4 5 6 3 1 0 0 5 10 10 10 9 10 11 9 9 10 10 10 11 13 13 12 13 13 14 14 12 12 12 14 16 14 14 15 15 16 16 17 18 14 11 13 15 15 14 13 13 11 10 11 9 6 8 9 7 6 5 6 9 7 6 7 9 8 6 6 5 4 4 4 5 4 5 5 4 3 3 4 6 8 6 7
7 5 3 3 5 3 6 5 4 3 3 5 4 2 4 7 6 3 3 4 6 4 8 10 9 9 9 9 9 10 11 11 10 9 11 11 10 13 12 13 14 13 12 11 12 14 14 14 14 15 15 17 20 21 18 13 13 15 15 14 14 14 12 11 11 9 6 9 8 8 6 4 7 8 5 5 6 8 9 7 7 6 4 4 4 6 6 6 6 7 6 5 8 5 4 3 6
6 5 4 4 1 4 7 6 6 4 2 6 5 2 2 7 6 1 5 2 3 6 5 10 10 9 9 9 8 10 10 11 13 11 10 10 9 11 12 13 14 13 12 11 12 14 15 14 13 15 16 16 18 19 20 17 16 16 16 15 13 12 13 13 12 10 9 9 8 8 7 5 7 6 4 5 5 7 7 6 7 5 3 4 4 6 7 5 5 7 7 6 10 8 6 5 5
6 4 3 4 1 5 7 7 7 4 2 5 5 3 0 6 6 3 4 0 3 4 8 7 11 10 9 10 8 8 8 10 14 13 12 12 12 13 12 14 16 14 14 13 14 14 14 15 14 15 17 16 16 18 20 19 16 16 18 17 12 11 13 13 11 10 11 11 10 9 8 7 7 6 4 4 4 6 6 5 5 4 2 3 3 4 6 5 4 5 6 6 8 7 6 4 3
4 3 4 5 1 5 5 5 7 7 7 4 5 3 3 2 7 6 6 4 5 6 9 10 11 12 10 9 9 8 7 9 12 12 12 11 15 19 14 13 16 13 16 18 15 14 14 16 15 15 16 16 16 18 19 19 16 16 18 17 14 12 12 11 10 12 13 13 13 10 9 10 8 6 4 3 3 3 3 3 4 3 2 3 2 3 5 6 6 5 5 5 5 6 7 5 1
2 2 2 5 3 5 6 5 7 9 10 6 5 4 6 3 8 9 9 8 9 9 10 13 10 11 10 9 9 10 8 8 9 11 13 12 12 18 16 14 16 13 17 20 16 15 15 15 16 15 16 16 16 19 19 18 18 18 18 17 15 14 13 13 13 13 14 15 14 13 12 10 9 7 4 3 2 2 3 3 4 3 2 2 2 2 3 5 5 4 4 3 4 5 4 5 4
4 2 2 6 5 4 8 7 7 8 9 8 7 6 7 5 7 9 10 10 11 10 10 12 11 11 10 10 9 10 9 8 9 10 13 13 11 13 13 13 14 12 15 18 18 17 15 16 17 16 18 17 16 19 18 18 20 19 16 16 18 17 16 15 14 14 14 16 16 15 13 10 10 7 4 3 1 1 3 2 2 2 2 1 2 2 2 4 4 3 3 1 3 5 4 5 4
9 4 1 5 8 1 9 9 6 5 5 8 7 5 6 7 7 8 9 10 10 9 10 10 9 11 10 10 9 9 10 9 11 13 13 12 12 11 12 13 12 12 13 16 18 17 16 18 18 17 18 18 18 19 18 18 19 18 16 17 17 16 15 14 14 14 13 15 17 17 15 11 10 8 6 4 1 0 2 1 1 1 2 1 2 2 3 5 3 2 2 2 3 4 5 4 3
7 3 2 7 8 2 10 9 7 4 2 7 9 6 6 8 9 9 9 10 9 9 11 11 9 11 10 10 10 10 11 9 11 14 13 12 13 13 12 13 12 13 15 16 16 16 17 20 19 18 18 18 19 19 19 19 18 17 16 17 16 14 14 14 13 14 13 14 15 16 16 12 11 9 7 5 2 2 2 0 2 1 1 2 2 2 1 3 1 1 1 2 4 3 4 2 1
7 6 5 9 4 3 6 6 6 5 1 4 8 8 8 9 9 10 9 10 11 11 12 12 11 11 10 11 11 9 9 9 11 12 13 13 14 14 13 13 13 14 16 15 16 16 17 19 21 20 19 18 19 18 19 19 18 18 16 16 16 13 13 14 14 13 14 15 14 15 14 12 12 10 8 7 5 4 4 2 3 2 1 2 1 2 1 2 1 1 0 1 4 3 3 2 0
7 6 7 7 2 5 7 6 6 5 0 1 3 5 6 10 7 8 8 7 8 10 13 12 11 11 10 10 10 10 9 9 11 12 12 13 15 15 13 13 13 14 15 15 17 17 16 17 20 22 21 19 19 18 18 19 19 18 15 14 16 14 12 13 13 13 14 14 14 14 13 12 12 10 9 8 7 6 5 4 4 4 2 2 2 2 2 2 2 1 1 1 4 4 3 2 2
7 6 7 7 5 3 1 6 6 4 1 3 5 5 4 7 2 0 2 1 5 8 10 9 8 11 10 10 10 10 10 9 9 11 12 12 14 15 13 13 14 14 15 15 16 17 17 17 19 23 23 19 19 19 18 19 20 19 15 14 15 14 13 13 11 12 14 14 14 14 13 11 11 10 9 9 8 7 6 5 4 4 4 3 2 3 3 3 3 3 3 0 2 6 3 2 1
9 9 8 7 8 9 3 7 6 3 3 1 3 3 5 6 2 2 1 2 1 6 8 11 10 8 8 8 9 10 10 10 10 11 11 11 13 14 13 14 14 14 15 15 17 17 17 18 19 21 23 21 21 21 20 18 20 20 17 15 16 15 14 14 12 13 15 14 14 14 13 12 12 12 10 10 9 8 8 7 4 4 5 4 4 4 4 4 4 3 4 2 3 5 4 3 3
8 9 11 11 9 10 6 3 2 3 1 3 4 5 3 7 7 7 3 2 6 5 2 6 13 7 7 8 9 10 10 10 9 11 11 11 13 14 14 14 15 15 14 15 16 16 18 19 19 19 21 22 22 21 21 20 20 21 19 17 17 14 13 15 15 15 15 15 15 15 14 13 12 11 11 10 9 8 8 7 6 5 5 5 5 5 4 4 4 4 4 3 3 3 2 5 6
6 5 9 9 10 8 7 7 6 4 3 3 8 6 1 5 4 5 5 5 6 6 7 5 9 10 8 10 10 9 10 10 9 9 10 12 12 13 13 14 15 15 15 15 16 16 18 20 19 19 19 20 21 20 21 22 20 20 19 19 17 14 13 14 15 15 15 15 14 16 14 13 12 11 11 11 9 9 9 8 7 6 5 6 5 5 5 5 5 4 3 2 1 1 1 4 6
5 2 7 10 9 6 7 9 6 3 4 5 7 5 3 2 2 4 7 7 6 6 7 7 6 9 9 9 11 11 10 10 10 9 10 11 12 13 13 14 14 15 15 15 15 17 19 20 19 19 19 19 20 20 21 22 21 19 19 19 16 15 14 13 14 14 14 12 12 15 14 13 13 12 11 11 10 9 9 8 8 7 6 6 5 6 7 6 5 4 3 3 2 2 2 4 6
6 3 6 9 11 11 9 7 3 3 5 6 4 4 4 1 4 5 7 7 7 7 8 7 6 8 8 8 8 9 9 8 7 7 9 10 11 12 12 13 13 15 16 15 15 18 19 20 20 19 19 18 19 21 20 20 20 19 19 18 15 15 14 14 14 14 14 14 12 13 13 13 14 12 11 11 10 9 9 8 7 7 7 6 6 6 7 7 5 4 4 4 4 4 5 5 5
5 8 9 5 8 11 10 6 3 4 5 5 5 5 4 0 5 5 6 7 7 8 8 8 8 8 7 7 5 3 3 7 5 3 6 9 11 12 12 13 14 14 16 15 15 18 19 20 20 19 19 18 20 21 20 19 18 18 18 18 16 15 15 17 15 13 14 14 12 12 11 12 13 12 10 10 10 9 9 8 8 7 7 7 7 6 6 6 5 4 5 6 6 5 6 6 6
7 7 8 6 5 4 6 6 5 5 5 4 5 6 5 2 3 3 3 4 6 8 8 8 10 10 7 6 4 3 3 5 7 7 8 10 13 15 13 13 13 13 16 16 16 18 18 19 19 20 19 18 20 21 20 19 18 18 17 17 18 17 15 17 15 11 13 12 12 12 11 9 10 12 12 11 10 9 9 9 8 7 7 7 7 6 6 6 7 6 6 7 7 5 6 6 7
9 6 6 6 2 5 4 4 5 4 4 4 5 5 6 4 1 4 4 4 7 9 9 10 12 11 7 6 6 6 4 2 4 9 10 9 11 14 14 14 14 14 15 17 17 18 18 18 19 19 19 19 20 20 20 20 18 18 18 17 19 18 14 17 16 12 13 12 11 12 11 11 10 10 11 11 11 11 11 10 9 8 8 7 7 6 7 7 7 6 6 7 8 7 7 7 8
7 5 5 3 2 3 3 2 2 3 5 6 3 2 4 0 6 7 6 5 7 9 9 12 13 11 8 7 8 7 6 3 3 5 8 8 8 10 12 14 14 14 15 17 18 18 18 19 19 19 19 19 20 20 19 20 18 19 19 17 18 17 12 16 17 14 13 13 12 12 12 13 12 11 11 12 12 11 12 12 10 9 9 8 7 7 7 6 6 6 5 6 7 7 7 7 8
6 5 3 1 1 2 4 4 3 2 4 4 1 3 3 3 7 8 7 5 7 8 9 11 13 12 10 9 9 7 8 7 5 4 4 6 8 9 12 13 14 14 15 15 17 20 19 19 19 19 19 19 19 20 20 20 19 18 19 17 17 16 13 14 15 14 14 14 13 13 12 13 13 12 12 12 12 10 11 12 12 11 10 9 9 8 7 6 6 7 6 6 7 7 7 8 8
6 4 3 4 4 4 4 3 3 2 2 2 3 1 5 1 6 8 8 5 4 6 8 10 11 11 9 9 9 8 9 9 7 7 5 6 9 10 9 9 9 11 15 17 16 18 19 19 20 19 19 19 19 19 20 20 19 18 19 18 17 17 15 14 14 14 14 14 13 13 13 13 12 13 13 12 12 11 11 12 13 11 10 10 9 8 8 8 8 8 8 7 8 7 8 9 8
3 3 5 5 5 5 5 4 5 5 3 4 3 1 3 5 9 10 8 6 4 3 6 10 11 10 10 9 9 9 10 9 8 9 8 7 7 6 3 4 3 5 9 12 15 18 19 19 21 20 19 19 19 19 20 20 19 19 19 19 18 18 17 16 15 14 15 14 14 14 13 12 11 12 12 12 12 12 11 13 13 11 10 10 10 9 8 8 8 8 8 8 8 8 9 8 7
1 4 5 2 2 3 6 4 4 5 3 3 2 2 5 8 9 9 9 6 5 4 4 8 10 10 9 9 9 10 10 9 8 8 8 6 6 6 4 6 6 2 10 11 7 14 19 20 20 21 20 19 20 20 20 19 19 19 20 19 18 18 18 16 16 15 15 14 14 14 13 13 12 10 10 12 12 12 11 12 11 10 12 11 10 10 9 8 8 8 8 8 8 8 8 7 7
3 2 1 2 1 2 4 3 2 2 2 1 1 2 3 6 4 7 9 5 4 3 2 5 8 9 8 7 8 9 9 8 7 6 5 4 5 8 8 7 7 8 9 11 12 12 17 19 19 21 21 20 20 20 20 20 20 19 20 20 19 19 18 17 16 16 15 15 15 14 13 14 14 12 11 11 12 13 12 11 11 11 13 12 11 10 9 8 8 8 8 7 8 7 7 5 5
7 3 3 2 3 2 2 3 3 2 3 2 0 2 2 5 3 5 7 5 4 0 2 3 5 6 4 2 5 8 8 7 6 5 5 4 5 8 12 10 9 13 18 18 14 13 15 17 19 20 21 20 20 20 20 20 20 19 19 20 20 20 19 18 18 17 16 16 15 15 15 14 14 14 14 12 11 12 13 12 13 13 13 12 12 11 10 9 8 8 8 8 8 8 9 7 5
7 6 4 3 2 2 2 3 3 1 2 2 2 2 3 6 5 7 6 5 6 4 3 3 2 5 5 5 7 8 8 8 7 6 7 7 8 9 12 13 12 15 20 18 13 13 14 15 17 19 20 21 20 20 20 20 20 20 19 20 21 21 20 19 19 18 17 17 16 16 16 15 14 14 14 14 13 12 12 13 13 12 12 12 13 12 11 10 9 9 9 9 8 7 8 9 8
6 6 5 5 3 2 3 4 4 3 4 3 2 2 4 7 6 6 4 2 5 4 3 3 4 7 7 7 8 9 7 9 9 9 9 9 9 10 12 14 12 12 16 15 11 13 14 13 15 16 18 20 21 21 21 21 21 20 20 20 21 21 20 19 19 19 18 18 17 17 16 16 17 16 14 15 14 13 13 14 14 13 11 13 14 14 12 11 10 11 10 9 9 7 7 8 9
6 6 4 4 4 3 4 5 3 4 4 3 4 2 4 6 4 5 4 5 6 5 4 1 5 3 7 5 7 8 6 7 9 9 10 9 9 9 9 12 15 13 14 14 12 11 12 14 17 16 16 19 21 21 21 21 21 21 21 20 21 21 20 19 19 19 19 18 17 17 16 15 17 18 16 15 15 14 14 14 15 14 12 13 15 14 12 11 10 10 9 8 9 9 7 8 9
Wind_Direction
149 185 205 240 245 261 358 14 300 245 223 218 98 98 90 93 102 107 99 99 89 76 79 66 60 68 82 89 92 76 64 74 53 78 111 122 132 136 136 133 132 128 128 134 133 131 132 136 130 118 106 100 99 98 102 103 101 98 96 96 96 97 96 96 97 93 90 89 87 86 85 84 84 81 84 93 95 94 95 95 96 96 97 99 100 101 100 99 100 99 98 99 99 101 106 110 108
192 225 248 241 255 153 141 304 262 230 219 85 78 92 99 96 92 91 91 91 83 82 81 72 60 58 71 84 88 76 67 66 78 85 96 122 129 134 136 134 131 129 131 134 132 129 133 136 129 121 109 105 102 100 104 105 104 101 99 98 98 98 97 96 97 95 91 91 89 88 87 86 85 82 82 91 95 95 96 98 98 96 95 96 98 102 101 100 101 100 101 102 100 104 109 115 117
225 270 265 197 352 20 161 238 258 268 226 101 77 86 98 90 86 90 90 84 83 89 88 85 72 65 74 77 78 76 83 80 92 98 106 126 130 141 138 132 132 129 131 133 129 128 134 134 131 125 115 111 103 103 106 107 108 105 103 101 99 100 100 99 97 95 92 93 92 89 90 89 87 83 80 86 94 95 95 98 98 97 96 97 100 102 101 100 100 100 103 104 103 104 107 112 115
250 287 269 142 56 313 219 248 281 297 353 106 96 91 94 91 94 97 93 87 84 83 85 89 73 65 72 79 90 86 95 96 101 108 120 131 133 141 135 130 132 127 130 131 128 131 137 136 135 128 117 115 106 107 108 107 109 106 104 102 101 102 102 101 98 96 94 96 96 94 91 90 89 86 81 82 90 94 94 96 97 99 100 101 103 102 101 98 99 101 103 104 104 104 104 108 110
259 285 272 169 144 271 285 269 253 243 89 92 98 98 98 98 107 107 103 98 90 83 81 92 91 90 72 67 93 98 106 108 109 111 114 128 131 133 132 130 130 128 127 125 125 131 138 137 131 125 119 119 113 111 111 111 110 106 104 103 102 102 103 102 100 98 97 98 99 98 94 93 92 89 85 84 88 93 95 96 97 100 102 102 104 107 104 99 100 103 103 103 106 105 102 104 106
274 295 285 275 267 267 287 266 150 109 76 84 97 95 98 97 110 114 111 102 94 100 101 91 95 100 83 66 77 90 112 117 116 117 117 125 129 128 130 129 126 126 125 120 121 128 135 132 125 122 122 122 116 110 111 113 110 105 104 103 102 103 105 106 104 102 100 100 99 100 98 96 94 93 91 88 86 90 95 96 97 98 100 103 108 111 106 103 105 105 105 104 104 103 101 102 102
305 333 329 22 266 222 265 270 99 91 69 81 96 93 98 98 107 107 107 102 90 104 110 92 95 98 86 83 83 80 100 114 116 120 119 120 123 126 128 125 122 123 123 119 120 127 131 126 122 120 122 120 113 108 108 111 108 105 103 103 104 105 108 110 109 106 104 102 101 103 100 98 96 95 95 93 89 91 95 96 95 96 99 104 110 109 108 109 107 106 106 104 103 102 103 103 105
7 359 191 43 271 263 300 284 78 85 78 78 85 86 92 94 94 93 90 88 84 94 94 89 99 98 85 81 86 93 99 107 114 120 120 118 122 126 127 124 122 124 123 122 123 127 127 123 123 121 121 116 109 108 107 109 106 104 105 104 107 108 110 110 108 106 105 103 102 103 101 100 99 97 98 98 96 93 93 96 96 98 101 102 104 104 105 106 104 108 109 107 106 106 108 110 114
51 20 211 40 309 310 278 219 90 85 88 85 86 84 86 88 76 90 86 84 96 95 88 97 107 106 104 97 103 120 108 110 119 123 123 123 127 129 129 126 123 125 123 122 125 127 125 123 123 122 122 119 118 116 112 112 109 108 108 110 112 113 111 110 110 108 107 107 106 105 105 105 103 101 100 101 103 99 94 96 96 99 103 101 101 101 100 100 103 110 112 112 112 113 116 117 120
76 23 304 19 320 304 263 135 99 92 92 90 89 86 81 87 80 83 90 102 115 98 96 109 110 112 114 110 113 120 115 121 127 125 124 126 129 129 127 127 125 125 123 122 126 127 126 124 123 124 126 128 126 120 118 118 116 114 112 115 117 117 113 110 110 111 111 110 110 110 111 112 108 105 102 101 106 108 103 100 100 101 105 104 105 107 107 108 110 111 112 115 115 116 119 121 125
65 160 42 2 342 333 296 91 101 99 98 95 84 80 76 89 94 94 100 115 117 106 109 109 105 112 110 108 110 121 126 130 128 125 127 127 127 127 127 130 128 127 126 126 127 128 126 123 123 126 130 129 124 118 119 122 121 120 117 117 118 118 114 110 109 110 112 110 112 112 114 116 113 110 106 101 103 112 113 107 106 105 107 109 111 111 111 112 112 112 113 113 114 116 117 120 123
39 32 67 5 357 3 293 342 106 108 108 107 94 87 86 97 95 103 104 111 118 116 115 115 130 128 113 113 117 130 133 130 127 126 128 129 129 129 132 132 129 129 128 128 128 128 127 124 124 127 129 123 122 120 120 125 126 126 123 120 121 121 117 116 113 112 113 111 113 115 117 118 115 114 110 104 102 112 119 115 110 109 110 112 113 113 113 114 114 114 114 114 115 117 118 119 121
77 38 82 32 342 30 287 303 119 130 117 104 103 98 94 97 81 85 87 97 112 120 131 142 153 137 113 117 126 136 134 128 128 129 130 130 129 128 130 131 130 129 129 129 128 130 128 125 124 127 127 120 122 122 125 131 129 128 127 125 127 126 124 124 121 117 117 117 118 119 120 119 118 118 111 108 110 117 125 123 117 114 114 114 116 116 117 119 119 118 117 116 117 118 119 120 122
132 194 108 102 355 352 286 277 147 138 115 105 115 111 93 92 77 77 87 96 99 115 140 146 148 126 114 125 134 140 131 131 134 133 132 130 129 129 130 133 133 132 131 130 130 133 130 126 127 128 129 126 125 125 127 131 131 130 128 130 132 131 132 131 127 125 123 123 123 121 120 120 119 116 111 111 119 126 129 131 126 121 120 120 121 121 123 125 125 123 121 119 120 120 120 120 123
131 173 99 88 78 294 292 294 267 98 114 126 127 127 108 95 82 83 78 99 99 104 121 123 135 134 135 144 141 140 135 138 139 133 133 130 130 129 130 134 132 131 132 132 132 133 131 129 130 131 134 133 129 129 130 132 133 131 131 133 133 133 135 133 128 129 131 129 126 124 122 120 118 115 114 115 121 126 130 136 133 127 125 124 125 127 128 129 129 127 124 124 124 123 119 118 123
101 125 69 57 114 217 306 318 300 57 127 131 131 157 124 103 93 93 18 87 103 111 120 117 141 159 148 143 134 137 140 141 139 134 134 131 130 129 131 136 132 129 130 132 135 134 132 132 134 137 140 138 134 133 135 137 136 134 136 137 134 134 134 132 130 132 134 131 129 128 124 122 121 117 117 117 118 122 130 137 137 133 130 127 128 130 131 133 133 130 128 130 131 128 122 119 123
58 37 56 53 58 141 320 347 310 278 136 131 142 166 121 103 103 112 268 89 105 110 113 118 141 152 131 126 131 137 141 142 139 135 133 132 134 134 136 138 133 134 133 134 140 137 135 137 138 141 143 141 136 133 135 139 139 137 138 139 138 138 135 133 132 138 137 134 137 135 131 133 126 118 122 126 125 132 137 138 138 136 132 129 131 133 134 136 135 132 133 135 134 131 128 124 125
80 28 149 138 258 231 295 314 241 257 180 138 154 158 121 120 132 151 188 125 118 107 87 102 114 116 114 122 133 138 143 144 141 139 137 140 143 138 137 137 134 138 139 140 145 142 142 146 144 142 140 140 136 134 135 140 141 139 141 143 143 144 142 135 132 139 138 140 146 144 143 143 135 127 133 140 138 140 137 135 136 131 128 130 133 137 137 137 136 135 136 139 140 141 138 132 132
121 218 166 124 193 173 216 236 243 261 208 145 156 145 121 127 136 160 156 118 112 110 99 105 108 112 120 127 136 141 147 146 145 144 141 148 149 141 138 134 135 139 140 143 147 147 146 148 151 145 142 145 141 137 139 142 146 144 142 143 145 150 146 139 144 149 146 150 151 147 147 142 141 144 143 148 144 137 135 133 132 129 130 132 135 139 139 139 137 136 139 142 150 160 154 147 151
171 218 120 115 224 167 222 239 272 283 270 125 131 139 134 132 118 89 107 82 40 115 119 122 121 126 130 133 142 144 149 149 146 146 145 153 145 139 146 141 139 143 145 143 146 150 147 150 157 150 148 153 144 141 148 146 150 148 139 142 148 149 146 149 161 158 153 152 148 147 147 142 152 160 156 156 147 138 136 132 130 132 134 136 139 141 143 145 144 144 144 153 168 176 173 169 178
253 285 102 160 228 258 236 222 275 285 298 75 359 312 128 98 67 61 98 85 320 204 131 135 134 135 138 141 147 147 150 147 144 148 147 149 132 130 145 141 142 150 150 143 146 151 148 152 158 152 152 155 151 150 153 150 153 151 146 152 156 155 156 160 158 152 147 143 145 145 142 147 156 153 151 149 137 135 135 133 136 137 138 142 145 145 149 154 157 157 162 180 191 186 190 195 196
181 350 11 197 220 259 225 177 154 270 309 77 2 353 54 66 62 61 97 111 209 199 126 137 138 138 145 145 148 148 149 145 147 152 139 126 120 130 141 143 148 145 143 146 153 153 149 152 152 152 155 157 159 158 154 152 156 158 155 157 162 163 158 154 153 150 145 144 147 144 146 156 154 148 150 149 143 143 139 137 140 139 143 153 159 161 164 183 185 180 193 209 222 207 207 211 195
187 26 358 301 277 281 276 97 89 95 36 33 27 353 28 85 89 41 2 42 113 121 125 135 138 142 146 146 151 147 148 150 148 149 140 129 132 146 148 152 150 131 140 152 154 153 149 150 152 155 157 157 161 163 160 154 156 164 159 157 162 161 154 152 152 150 150 155 159 155 161 166 162 167 171 168 175 179 167 155 152 158 177 188 192 190 187 209 209 199 209 231 258 224 192 174 172
83 58 20 337 320 318 338 37 72 106 116 40 298 21 45 79 80 40 320 267 167 123 127 135 138 142 147 148 148 146 153 152 144 152 151 141 145 152 144 151 143 126 143 152 152 158 153 150 155 162 159 156 160 164 166 162 162 165 161 160 164 162 155 153 153 155 156 158 168 168 169 166 161 166 166 173 183 187 180 168 163 171 184 191 194 190 175 179 175 168 169 198 259 206 161 151 148
90 84 86 358 323 347 25 76 103 152 127 228 203 101 56 43 73 88 258 252 149 124 133 140 141 141 151 150 146 153 156 150 153 156 146 136 142 146 143 155 148 139 150 153 154 159 156 154 159 168 163 157 159 164 170 170 168 165 161 161 165 166 158 154 157 159 157 155 174 174 166 160 156 161 167 176 175 167 162 156 157 163 160 153 151 139 125 127 127 130 123 148 216 157 141 155 157
126 144 138 178 244 152 148 137 127 165 128 266 178 122 134 207 116 164 251 247 126 135 143 138 143 149 153 149 152 154 145 153 157 139 132 136 144 147 150 160 155 149 153 156 154 150 156 160 158 163 162 160 162 166 175 170 171 168 158 160 163 164 161 159 160 161 164 169 179 179 166 158 155 162 170 167 151 137 142 146 158 163 150 128 132 126 116 123 105 93 99 175 226 149 137 165 174
147 150 173 195 182 147 172 137 119 128 81 349 142 129 156 183 165 194 241 226 138 150 144 140 153 154 149 152 160 148 144 168 158 135 137 142 147 153 151 156 157 150 152 155 151 148 156 159 156 159 160 164 162 169 187 168 167 166 150 159 164 161 165 162 163 168 174 173 182 189 172 165 161 161 161 153 137 122 132 145 153 154 140 111 125 126 108 125 115 99 116 185 254 132 138 169 157
157 150 182 185 131 122 179 142 138 147 109 151 161 136 150 199 217 179 191 184 164 163 146 148 160 155 152 159 156 139 149 168 156 148 150 152 162 160 150 153 158 154 158 157 150 152 160 161 160 159 155 160 161 174 194 166 157 158 151 164 167 163 168 162 161 160 154 166 181 186 160 142 146 156 153 144 134 128 139 144 140 136 116 109 116 115 95 101 107 103 134 276 335 125 136 157 146
174 158 191 177 134 166 205 164 171 179 144 174 183 168 185 211 212 189 195 75 325 186 157 154 164 163 158 157 152 140 153 163 157 155 153 161 169 158 152 154 157 159 161 162 158 155 158 160 160 157 151 152 156 164 176 168 159 159 160 166 165 168 169 163 159 143 138 170 171 158 139 107 122 144 143 139 136 135 142 140 135 128 117 128 112 103 91 59 51 30 12 355 2 124 134 138 144
175 179 236 204 150 193 205 170 171 173 142 171 185 209 195 197 190 199 291 16 359 288 179 162 166 168 160 159 162 150 158 165 160 162 155 158 157 153 157 155 158 162 158 164 166 157 150 153 158 158 154 150 154 156 156 169 175 164 164 164 165 172 172 173 160 139 155 173 163 152 139 111 129 141 139 159 160 140 143 147 143 130 117 136 108 84 79 58 52 39 23 8 21 70 98 83 132
183 198 233 238 178 182 193 172 162 157 138 174 187 259 186 179 181 293 314 42 51 301 233 175 167 171 165 164 169 155 163 164 154 162 160 159 158 155 159 159 162 161 158 165 164 158 151 152 158 158 158 156 160 156 148 164 176 163 162 163 169 180 177 173 155 146 168 168 165 163 146 131 143 157 165 162 153 135 144 148 136 126 106 117 100 78 81 75 70 61 45 17 20 28 10 27 101
202 219 256 258 227 153 175 166 167 166 158 188 202 272 274 172 189 223 286 157 131 276 276 210 173 170 171 167 167 162 168 156 150 163 166 167 163 158 170 168 164 165 164 161 157 158 155 155 158 158 160 159 161 158 150 160 169 163 163 163 171 188 180 166 154 162 174 167 169 169 159 159 161 174 166 143 137 136 148 144 131 133 86 93 99 73 87 85 67 75 63 29 26 24 358 3 76
220 244 299 301 291 146 163 166 175 158 142 198 225 258 317 182 183 196 210 208 196 226 265 246 189 167 177 173 163 167 175 158 152 160 166 175 162 160 178 169 161 172 162 155 157 157 156 157 159 161 159 155 160 159 148 153 164 168 167 159 165 185 175 160 169 179 174 169 171 171 170 173 174 176 167 160 153 155 172 139 127 136 69 86 105 53 82 81 62 72 66 37 28 23 2 346 9
270 249 298 300 274 168 154 156 185 159 144 189 215 219 286 233 171 191 196 200 213 214 246 248 202 167 175 176 171 168 172 168 155 159 170 178 164 161 171 162 160 168 154 152 156 153 154 156 157 162 157 153 163 158 148 152 162 165 165 161 167 181 179 175 187 186 174 169 170 173 174 177 178 178 192 190 110 106 153 107 104 118 70 67 49 22 87 88 73 62 53 35 357 359 351 330 334
266 251 261 295 294 185 137 135 188 175 147 172 192 207 251 225 172 194 199 198 211 215 240 239 195 175 175 177 183 164 166 178 157 169 181 168 159 162 161 159 163 162 153 150 148 148 152 151 153 158 156 160 165 157 153 155 158 163 167 170 174 182 188 190 189 181 174 170 171 176 173 177 186 185 196 194 51 73 137 85 86 99 64 69 26 7 52 77 96 70 38 7 347 340 291 287 323
245 242 243 293 296 259 115 116 156 165 145 166 195 223 220 203 183 198 205 201 211 220 246 249 197 177 174 180 185 164 172 181 160 173 184 161 159 167 155 157 164 152 143 142 144 148 149 146 148 153 155 161 160 153 156 157 158 168 172 173 179 187 189 189 182 174 174 167 163 170 169 176 192 192 194 198 281 238 150 74 148 80 41 100 47 47 46 55 104 120 33 335 325 325 312 311 319
274 306 325 268 278 36 100 120 143 156 162 167 190 214 203 198 186 192 206 208 213 221 239 246 206 177 178 185 180 172 174 173 172 176 171 161 163 163 154 158 161 148 137 137 146 153 150 145 146 151 151 157 159 156 162 163 162 168 171 171 179 187 185 185 184 174 168 160 157 169 173 177 188 191 197 198 212 226 226 148 160 267 39 106 78 107 13 19 95 195 75 341 298 296 322 344 334
307 300 282 272 274 109 131 143 143 157 184 166 190 214 202 190 182 184 199 213 210 211 233 235 199 181 188 185 173 177 173 165 179 172 161 168 164 157 158 159 159 152 147 148 151 154 154 149 147 151 153 159 165 164 165 169 167 166 168 171 172 177 181 183 186 176 160 153 160 171 173 178 183 186 193 191 197 213 227 217 182 216 160 135 160 140 275 296 190 267 41 313 301 303 298 291 115
292 283 268 275 248 159 154 139 135 141 148 278 280 282 193 168 171 180 187 222 226 214 228 228 194 182 190 183 171 177 173 169 177 162 164 176 162 156 160 159 160 154 153 155 152 153 157 153 148 154 158 163 169 169 168 172 171 166 168 173 169 171 180 181 182 173 155 151 161 168 172 183 184 183 191 191 197 207 209 212 199 195 184 181 214 198 226 250 213 245 259 268 312 313 286 304 32
269 264 261 279 276 271 149 144 152 146 202 278 310 317 154 138 112 194 159 284 304 280 262 262 219 188 191 188 172 175 176 175 177 163 169 175 163 160 159 161 164 157 157 158 154 155 156 155 154 157 161 164 168 171 172 174 175 172 173 178 174 173 182 189 186 164 154 157 162 168 177 187 185 182 192 192 195 203 195 201 211 189 185 186 210 228 227 242 238 236 259 235 311 309 336 33 2
258 245 247 275 282 291 288 144 146 178 203 204 295 282 130 132 171 229 274 130 178 288 308 315 283 203 190 198 176 178 182 175 181 173 171 174 168 163 161 166 166 160 163 161 159 161 157 159 160 159 163 165 168 171 170 173 177 178 179 181 183 184 188 198 192 162 159 167 165 174 182 184 187 186 191 196 192 196 192 196 209 183 186 202 211 229 239 250 252 243 266 297 288 297 342 342 307
262 250 245 239 244 281 289 168 183 261 220 134 230 282 114 147 174 179 215 175 158 173 151 309 288 242 198 207 185 182 182 175 188 181 169 175 174 166 165 170 167 165 170 165 163 164 156 158 162 160 162 165 168 170 169 170 174 176 178 178 183 189 192 199 191 168 170 180 174 177 182 182 190 189 189 197 191 190 194 195 201 197 202 216 217 236 252 246 255 249 236 255 266 263 329 327 318
259 277 289 253 216 240 275 271 275 302 333 196 216 279 6 144 160 161 180 198 174 154 154 193 267 260 223 206 187 185 188 177 186 188 174 176 174 169 171 175 173 169 170 169 165 162 155 157 161 161 163 164 165 167 169 170 172 173 175 176 180 187 191 194 187 173 175 184 177 174 178 183 189 190 189 195 195 190 193 195 199 207 215 221 222 240 253 233 245 260 213 191 253 228 308 315 307
268 348 311 282 252 240 258 269 278 330 321 259 221 261 299 152 155 172 172 194 193 173 181 186 231 263 248 220 193 186 192 179 180 187 183 181 175 175 179 179 179 170 167 172 166 157 156 157 161 163 164 165 164 166 169 170 172 174 176 178 179 185 185 179 181 179 175 180 177 170 175 182 184 193 194 191 196 195 191 197 202 209 216 227 230 230 239 237 236 245 201 196 252 250 253 269 284
247 283 276 278 292 298 292 282 304 336 300 280 252 246 281 79 140 171 166 181 202 201 203 192 209 247 252 244 220 193 186 174 179 192 187 183 173 176 183 181 184 173 164 172 165 155 155 157 162 164 164 166 165 167 169 171 174 175 178 180 179 184 181 174 185 187 177 179 179 172 177 180 181 194 198 187 192 199 197 202 207 213 219 228 235 234 241 244 234 218 209 227 251 248 245 252 266
254 310 311 278 262 284 302 308 333 318 283 289 296 265 276 136 145 172 169 176 199 203 203 195 203 229 241 253 272 284 206 159 158 213 200 185 170 177 192 187 186 176 165 169 163 155 156 159 162 165 166 166 166 169 170 171 174 176 180 180 180 189 183 177 187 186 177 179 176 176 183 181 179 187 195 193 196 199 200 207 211 214 224 228 232 242 251 253 243 221 224 236 240 243 242 246 264
282 304 302 260 232 298 328 330 331 295 267 286 292 283 298 298 156 158 140 162 181 180 191 198 199 212 225 240 251 277 258 161 159 204 206 194 182 180 190 191 188 178 168 169 163 156 159 162 164 166 169 169 167 170 171 171 173 176 181 180 182 195 187 175 183 177 167 173 174 180 188 182 182 189 195 198 198 201 205 213 219 218 227 230 231 242 251 251 246 235 238 234 228 240 247 248 267
275 273 267 264 8 18 338 341 340 287 274 280 264 280 297 293 130 118 102 121 159 167 182 192 199 205 206 231 229 212 227 153 158 199 197 192 186 177 184 193 190 183 174 169 164 160 162 166 166 167 171 171 169 170 173 173 174 176 182 183 186 198 189 174 182 179 167 175 181 185 189 186 194 201 198 194 196 204 207 209 220 226 226 227 231 240 245 252 249 239 240 231 224 231 236 244 259
243 249 255 270 36 351 285 299 300 245 252 256 253 320 290 297 90 119 137 139 153 161 178 184 193 201 195 215 231 213 199 163 138 191 195 194 187 177 190 194 185 184 181 173 168 163 164 168 168 170 174 173 172 173 175 176 177 179 183 184 187 196 190 175 181 181 176 185 190 190 189 189 199 208 201 193 196 207 207 204 213 222 223 223 227 234 238 250 255 249 250 239 233 231 230 244 256
213 234 234 166 119 269 265 257 267 237 235 241 89 32 262 144 102 123 140 147 154 152 168 181 187 193 193 202 217 215 199 181 151 148 195 208 191 186 199 195 184 185 185 182 174 164 163 169 170 172 175 174 175 177 178 179 179 182 184 183 186 191 188 180 182 184 184 189 195 197 194 191 197 208 206 193 192 204 207 205 209 214 220 221 222 231 235 240 247 251 258 254 250 248 243 249 254
214 234 182 170 202 246 277 289 307 308 275 259 142 236 289 169 129 129 126 131 147 143 149 165 181 189 186 187 195 202 204 197 167 143 170 204 195 200 205 188 186 196 192 187 178 163 163 169 171 175 177 176 178 180 180 182 181 184 185 183 185 188 188 187 188 189 191 191 195 200 201 198 198 205 208 202 197 203 208 207 205 208 218 220 220 225 229 233 239 244 252 256 260 262 258 258 261
213 245 207 194 197 229 274 298 296 293 293 275 213 155 25 95 125 124 125 128 120 119 136 152 173 181 179 181 183 191 202 206 179 153 170 187 174 188 193 122 136 258 239 203 179 168 167 169 172 177 180 178 180 182 183 184 184 184 186 186 187 189 190 192 194 196 198 197 199 202 203 206 208 207 205 205 205 206 208 205 200 203 214 218 220 224 227 232 237 239 246 254 261 267 269 271 279
319 262 239 236 148 226 279 287 283 294 292 280 266 125 119 122 119 121 137 144 132 134 145 151 158 161 173 183 183 191 193 186 169 153 174 186 150 148 136 112 131 255 294 285 236 184 170 168 174 178 181 183 182 183 184 187 188 186 186 188 189 190 192 195 197 198 201 201 201 204 203 204 212 214 203 199 202 205 208 206 200 205 213 213 217 225 228 232 239 241 246 255 259 274 300 316 315
221 245 338 321 243 251 292 287 277 286 267 267 285 245 164 131 139 143 140 136 121 131 169 147 144 154 177 188 182 190 181 159 150 135 152 189 169 149 127 117 157 183 215 247 261 227 181 173 181 182 183 187 186 186 186 187 190 190 189 190 191 192 195 199 201 200 201 202 202 205 207 202 201 204 204 201 203 204 207 209 208 209 212 214 217 223 225 226 235 242 246 252 247 258 292 310 315
230 281 3 286 252 250 237 266 311 304 276 307 11 289 66 101 135 122 114 113 106 175 255 133 135 150 152 196 199 187 168 148 146 142 151 190 197 161 137 142 185 197 193 202 228 232 197 185 189 187 188 191 189 190 190 189 191 193 193 194 195 196 198 201 204 203 201 204 204 204 208 205 198 199 203 204 205 207 206 205 208 213 215 216 215 218 223 224 229 236 241 250 248 252 262 250 244
228 271 285 250 251 271 235 278 313 302 269 273 213 215 104 92 79 93 122 156 146 179 210 111 155 164 148 205 206 181 167 156 158 169 174 187 193 179 158 155 174 194 197 199 209 211 201 196 195 191 192 194 193 194 193 193 195 196 197 197 198 200 201 202 204 203 204 206 206 205 206 204 203 205 203 201 206 211 208 204 205 210 212 211 211 213 217 221 224 228 235 249 257 259 256 252 255
207 238 241 236 236 247 263 279 286 293 292 288 282 273 99 80 69 100 134 142 110 141 158 150 209 177 162 194 174 155 166 159 163 184 185 178 177 180 177 165 164 189 201 199 202 200 197 199 195 194 197 196 197 198 195 196 199 198 199 198 198 201 202 204 205 204 207 208 208 210 208 202 204 209 205 202 206 209 208 208 207 206 205 207 208 211 214 216 219 224 231 243 255 256 249 257 271
206 240 235 248 266 264 269 272 285 309 308 324 323 317 91 83 74 92 81 51 51 62 89 53 282 184 145 159 138 136 157 153 164 188 183 169 163 169 178 166 164 189 212 208 204 200 199 198 193 202 212 201 199 203 197 195 198 200 202 201 199 201 202 207 208 206 209 210 210 212 210 206 206 205 203 202 205 208 209 210 208 206 207 208 207 208 210 211 216 223 223 231 246 255 264 270 268